FW8899 Weather Reports


time (UTC)temp
C
wind
direction
speed
KPH
gust
KPH
rain 1hr
cm
rain 24hr
cm
rain mn
cm
humidity
%
barometer
mb
20260510020638 20 107 0.0 0.0 0.00 0.69 0.69 96 1014.8
20260510020133 20 106 0.0 0.0 0.00 0.69 0.69 96 1014.8
20260510015630 20 114 3.2 6.4 0.00 0.69 0.69 96 1014.7
20260510015126 20 109 0.0 0.0 0.00 0.69 0.69 96 1014.6
20260510014621 20 106 0.0 0.0 0.00 0.69 0.69 96 1014.5
20260510014120 20 105 0.0 0.0 0.00 0.69 0.69 95 1014.6
20260510013619 20 106 0.0 3.2 0.00 0.69 0.69 95 1014.4
20260510013115 20 100 3.2 6.4 0.00 0.69 0.69 95 1014.5
20260510012614 20 93 1.6 6.4 0.00 0.69 0.69 94 1014.1
20260510012111 20 104 0.0 3.2 0.00 0.69 0.69 94 1014.2
20260510011611 20 107 1.6 3.2 0.00 0.69 0.69 94 1014.0
20260510011107 20 110 4.8 9.7 0.00 0.69 0.69 94 1014.5
20260510010603 20 120 4.8 6.4 0.00 0.69 0.69 93 1014.4
20260510010101 21 111 3.2 3.2 0.00 0.69 0.69 93 1014.3
20260510005556 21 111 1.6 6.4 0.00 0.69 0.69 93 1014.7
20260510005054 21 106 0.0 6.4 0.00 0.69 0.69 93 1014.1
20260510004552 21 111 1.6 6.4 0.00 0.69 0.69 93 1014.2
20260510004049 21 109 6.4 11.3 0.00 0.69 0.69 93 1014.4
20260510003546 21 119 0.0 3.2 0.00 0.69 0.69 94 1014.4
20260510003041 21 118 1.6 3.2 0.00 0.69 0.69 93 1014.2
20260510002537 21 114 1.6 11.3 0.00 0.69 0.69 93 1014.1
20260510002034 21 104 1.6 6.4 0.00 0.69 0.69 93 1014.2
20260510001531 21 109 6.4 17.7 0.00 0.69 0.69 94 1013.7
20260510001030 21 109 3.2 6.4 0.00 0.69 0.69 94 1013.8
20260510000524 21 107 1.6 3.2 0.00 0.69 0.69 94 1013.9
20260510000021 21 76 4.8 11.3 0.00 0.69 0.69 93 1013.9
20260509235518 21 116 4.8 9.7 0.00 0.69 0.69 93 1013.8
20260509235015 21 95 3.2 14.5 0.00 0.69 0.69 93 1013.8
20260509234511 22 123 3.2 6.4 0.00 0.69 0.69 93 1013.9
20260509234009 22 138 6.4 9.7 0.00 0.69 0.69 93 1013.6
20260509233507 22 107 1.6 3.2 0.00 0.69 0.69 93 1013.6
20260509233003 22 115 6.4 9.7 0.00 0.69 0.69 92 1013.7
20260509232501 22 146 4.8 6.4 0.00 0.69 0.69 91 1013.6
20260509231956 22 134 3.2 17.7 0.00 0.69 0.69 92 1013.3
20260509231453 22 111 1.6 11.3 0.00 0.69 0.69 93 1013.8
20260509230951 22 159 4.8 9.7 0.00 0.69 0.69 93 1013.7
20260509230448 22 132 1.6 6.4 0.00 0.69 0.69 93 1013.7
20260509225944 22 109 4.8 9.7 0.00 0.69 0.69 93 1013.7
20260509225440 21 146 4.8 9.7 0.00 0.69 0.69 94 1013.6
20260509224936 21 88 0.0 3.2 0.00 0.69 0.69 95 1013.4
20260509224432 21 105 3.2 9.7 0.00 0.69 0.69 95 1013.4
20260509223929 22 117 16.1 20.9 0.00 0.69 0.69 95 1013.5
20260509223425 22 115 12.9 14.5 0.00 0.69 0.69 94 1013.5
20260509222923 22 110 1.6 11.3 0.00 0.69 0.69 94 1013.6
20260509222418 22 96 3.2 9.7 0.00 0.69 0.69 94 1013.4
20260509221914 22 105 9.7 30.6 0.00 0.69 0.69 93 1013.2
20260509221411 22 111 1.6 6.4 0.00 0.69 0.69 93 1013.1
20260509220907 23 90 3.2 9.7 0.00 0.69 0.69 92 1013.1
20260509220403 23 113 4.8 6.4 0.00 0.69 0.69 91 1013.1
20260509215859 23 130 3.2 9.7 0.00 0.69 0.69 90 1013.1
20260509215355 23 104 1.6 3.2 0.00 0.69 0.69 91 1013.0
20260509214852 23 128 8.0 11.3 0.00 0.69 0.69 89 1012.9
20260509214349 25 101 11.3 17.7 0.00 0.69 0.69 87 1012.7
20260509213847 24 117 0.0 9.7 0.00 0.69 0.69 88 1012.9
20260509213342 24 103 8.0 9.7 0.00 0.69 0.69 88 1013.1
20260509212840 24 99 1.6 9.7 0.00 0.69 0.69 89 1012.9
20260509212337 23 94 1.6 3.2 0.00 0.69 0.69 90 1013.0
20260509211833 23 121 1.6 6.4 0.00 0.69 0.69 90 1013.2
20260509211329 23 108 1.6 3.2 0.00 0.69 0.69 90 1013.1
20260509210825 23 111 3.2 6.4 0.00 0.69 0.69 90 1013.3
20260509210323 23 109 0.0 3.2 0.00 0.69 0.69 90 1013.2
20260509205823 23 112 0.0 3.2 0.00 0.69 0.69 90 1013.0
20260509205318 23 111 3.2 6.4 0.00 0.69 0.69 89 1013.4
20260509204814 23 95 0.0 3.2 0.00 0.69 0.69 89 1013.4
20260509204310 23 92 4.8 6.4 0.00 0.69 0.69 89 1013.4
20260509203806 23 79 4.8 6.4 0.00 0.69 0.69 89 1013.4
20260509203304 23 117 3.2 11.3 0.00 0.69 0.69 88 1013.4
20260509202800 23 116 0.0 3.2 0.00 0.69 0.69 90 1013.3
20260509202256 23 73 3.2 6.4 0.00 0.69 0.69 91 1013.3
20260509201755 23 103 0.0 0.0 0.00 0.69 0.69 92 1013.5
20260509201252 23 101 1.6 3.2 0.00 0.69 0.69 93 1013.6
20260509200749 23 72 6.4 9.7 0.00 0.69 0.69 92 1013.5
20260509200244 22 73 1.6 3.2 0.00 0.69 0.69 92 1013.6
20260509195741 23 102 0.0 6.4 0.00 0.69 0.69 92 1013.7
20260509195236 23 74 8.0 11.3 0.00 0.69 0.69 92 1013.7
20260509194731 23 88 3.2 6.4 0.00 0.69 0.69 92 1013.7
20260509194226 23 92 4.8 9.7 0.00 0.69 0.69 93 1013.6
20260509193724 23 95 0.0 3.2 0.00 0.69 0.69 94 1013.8
20260509193218 22 112 1.6 3.2 0.00 0.69 0.69 93 1013.9
20260509192714 22 127 1.6 3.2 0.00 0.69 0.69 93 1014.0
20260509192209 22 101 0.0 3.2 0.00 0.69 0.69 93 1014.0
20260509191705 22 108 1.6 6.4 0.00 0.69 0.69 93 1014.1
20260509191201 22 110 0.0 0.0 0.00 0.69 0.69 94 1013.9
20260509190658 22 106 0.0 0.0 0.00 0.69 0.69 94 1013.9
20260509190155 22 103 0.0 0.0 0.00 0.69 0.69 94 1013.9
20260509185653 22 109 0.0 3.2 0.00 0.69 0.69 94 1014.2
20260509185148 22 113 0.0 0.0 0.00 0.69 0.69 95 1014.3
20260509184646 22 97 3.2 3.2 0.00 0.69 0.69 95 1014.1
20260509184143 22 109 0.0 3.2 0.00 0.69 0.69 94 1014.2
20260509183639 22 109 0.0 6.4 0.00 0.69 0.69 94 1014.1
20260509183134 22 102 0.0 3.2 0.00 0.69 0.69 95 1014.1
20260509182630 22 109 0.0 3.2 0.00 0.69 0.69 96 1014.3
20260509182128 22 106 1.6 6.4 0.00 0.69 0.69 96 1014.4
20260509181626 22 75 3.2 6.4 0.00 0.69 0.69 96 1014.4
20260509181123 21 116 0.0 3.2 0.00 0.69 0.69 96 1014.4
20260509180620 21 113 1.6 6.4 0.00 0.69 0.69 96 1014.4
20260509180116 21 111 0.0 3.2 0.00 0.69 0.69 96 1014.4
20260509175611 21 103 0.0 0.0 0.00 0.69 0.69 96 1014.6
20260509175109 21 97 1.6 3.2 0.00 0.69 0.69 96 1014.8
20260509174605 21 109 0.0 0.0 0.00 0.69 0.69 96 1014.7
20260509174100 21 105 0.0 0.0 0.00 0.69 0.69 96 1015.0
20260509173555 21 116 1.6 3.2 0.00 0.69 0.69 96 1014.8
20260509173052 21 110 1.6 3.2 0.00 0.69 0.69 96 1014.9
20260509172549 21 112 0.0 0.0 0.00 0.69 0.69 96 1015.0
20260509172044 21 110 0.0 0.0 0.00 0.69 0.69 96 1015.0
20260509171541 21 115 0.0 3.2 0.00 0.69 0.69 96 1015.0
20260509171037 21 108 0.0 0.0 0.00 0.69 0.69 96 1014.9
20260509170533 21 114 0.0 3.2 0.00 0.69 0.69 96 1014.9
20260509170029 21 116 0.0 3.2 0.00 0.69 0.69 96 1015.0
20260509165528 21 114 0.0 3.2 0.00 0.69 0.69 96 1015.0
20260509165023 21 107 0.0 3.2 0.00 0.69 0.69 96 1015.0
20260509164520 21 134 3.2 3.2 0.00 0.69 0.69 96 1014.9
20260509164015 21 106 0.0 0.0 0.00 0.69 0.69 96 1015.0
20260509163513 20 113 0.0 3.2 0.00 0.69 0.69 96 1014.9
20260509163008 21 112 0.0 3.2 0.00 0.69 0.69 96 1014.7
20260509162506 20 116 0.0 3.2 0.00 0.69 0.69 96 1014.7
20260509162001 20 105 0.0 0.0 0.00 0.69 0.69 96 1014.6
20260509161458 20 107 0.0 3.2 0.00 0.69 0.69 96 1014.7
20260509160953 20 105 1.6 3.2 0.00 0.69 0.69 96 1014.6
20260509160449 20 111 0.0 0.0 0.00 0.69 0.69 96 1014.8
20260509155944 20 104 0.0 3.2 0.00 0.69 0.69 96 1014.7
20260509155441 20 85 0.0 6.4 0.00 0.69 0.69 96 1014.6
20260509154938 20 109 0.0 3.2 0.00 0.69 0.69 96 1014.5
20260509154434 20 117 1.6 3.2 0.00 0.69 0.69 96 1014.4
20260509153932 20 107 0.0 0.0 0.00 0.69 0.69 96 1014.4
20260509153428 20 110 0.0 3.2 0.00 0.69 0.69 96 1014.4
20260509152925 20 101 1.6 3.2 0.00 0.69 0.69 96 1014.5
20260509152421 20 111 1.6 3.2 0.00 0.69 0.69 96 1014.2
20260509151918 20 107 0.0 3.2 0.00 0.69 0.69 96 1014.4
20260509151414 20 100 0.0 0.0 0.00 0.69 0.69 96 1014.4
20260509150913 20 104 0.0 3.2 0.00 0.69 0.69 96 1014.8
20260509150410 20 95 3.2 3.2 0.00 0.69 0.69 96 1014.5
20260509145908 20 113 0.0 3.2 0.00 0.69 0.69 96 1014.6
20260509145407 20 109 0.0 0.0 0.00 0.69 0.69 96 1014.5
20260509144903 20 103 0.0 3.2 0.00 0.69 0.69 96 1014.4
20260509144400 20 87 3.2 3.2 0.00 0.69 0.69 96 1014.7
20260509143857 19 106 0.0 3.2 0.00 0.69 0.69 96 1014.6
20260509143355 18 128 3.2 6.4 0.00 0.69 0.69 96 1014.7
20260509142851 18 108 0.0 0.0 0.00 0.69 0.69 96 1014.7
20260509142348 18 112 1.6 3.2 0.00 0.69 0.69 96 1014.6
20260509141843 18 103 0.0 3.2 0.00 0.69 0.69 96 1014.6
20260509141341 18 113 0.0 3.2 0.00 0.69 0.69 96 1014.7
20260509140837 18 107 0.0 0.0 0.00 0.69 0.69 96 1014.6
20260509140334 18 104 0.0 3.2 0.00 0.69 0.69 96 1014.8
20260509135832 18 112 0.0 3.2 0.00 0.69 0.69 96 1014.6
20260509135329 18 118 3.2 3.2 0.00 0.69 0.69 96 1015.0
20260509134826 18 109 0.0 3.2 0.00 0.69 0.69 96 1014.9
20260509134323 18 120 3.2 6.4 0.00 0.69 0.69 96 1014.9
20260509133820 18 173 4.8 6.4 0.00 0.69 0.69 96 1014.6
20260509133317 18 120 1.6 6.4 0.00 0.69 0.69 96 1014.9
20260509132816 18 110 0.0 3.2 0.00 0.69 0.69 96 1014.8
20260509132314 18 106 0.0 3.2 0.00 0.69 0.69 96 1014.6
20260509131810 17 113 0.0 6.4 0.00 0.69 0.69 96 1014.6
20260509131307 17 108 0.0 0.0 0.00 0.69 0.69 96 1014.8
20260509130803 17 100 0.0 3.2 0.00 0.69 0.69 96 1014.6
20260509130259 17 103 0.0 3.2 0.00 0.69 0.69 96 1014.7
20260509125756 17 91 3.2 3.2 0.00 0.69 0.69 96 1014.4
20260509125253 17 105 0.0 0.0 0.00 0.69 0.69 96 1014.7
20260509124749 17 110 0.0 3.2 0.00 0.69 0.69 96 1014.5
20260509124245 17 106 0.0 3.2 0.00 0.69 0.69 96 1014.4
20260509123744 17 108 0.0 0.0 0.00 0.69 0.69 96 1014.4
20260509123241 17 112 0.0 0.0 0.00 0.69 0.69 96 1014.2
20260509122736 17 110 0.0 3.2 0.00 0.69 0.69 96 1014.0
20260509122233 17 113 0.0 0.0 0.00 0.69 0.69 96 1014.3
20260509121730 17 100 1.6 3.2 0.00 0.69 0.69 96 1014.5
20260509121228 17 108 0.0 3.2 0.00 0.69 0.69 96 1014.4
20260509120726 17 110 0.0 3.2 0.00 0.69 0.69 96 1014.3
20260509120223 16 107 0.0 0.0 0.00 0.69 0.69 96 1014.5
20260509115721 16 109 0.0 0.0 0.00 0.69 0.69 96 1014.3
20260509115218 16 105 0.0 3.2 0.00 0.69 0.69 96 1014.2
20260509114717 16 114 0.0 3.2 0.00 0.69 0.69 96 1014.1
20260509114215 16 110 0.0 0.0 0.00 0.69 0.69 96 1014.4
20260509113713 16 112 0.0 0.0 0.00 0.69 0.69 96 1014.1
20260509113210 16 96 0.0 0.0 0.00 0.69 0.69 96 1014.1
20260509112707 16 109 0.0 0.0 0.00 0.69 0.69 96 1013.9
20260509112203 16 106 0.0 0.0 0.00 0.69 0.69 96 1013.9
20260509111700 16 109 0.0 0.0 0.00 0.69 0.69 96 1013.7
20260509111157 16 108 0.0 0.0 0.00 0.69 0.69 96 1013.7
20260509110655 16 107 0.0 0.0 0.00 0.69 0.69 96 1013.5
20260509110151 16 104 0.0 0.0 0.00 0.69 0.69 96 1013.6
20260509105649 16 103 0.0 0.0 0.00 0.69 0.69 96 1013.7
20260509105146 17 109 0.0 0.0 0.00 0.69 0.69 96 1013.6
20260509104643 17 111 0.0 0.0 0.00 0.69 0.69 96 1013.6
20260509104140 17 112 0.0 0.0 0.00 0.69 0.69 96 1013.5
20260509103638 16 108 0.0 0.0 0.00 0.69 0.69 96 1013.5
20260509082212 18 328 20.9 33.8 0.00 0.69 0.69 96 1014.2
20260509081709 18 328 20.9 33.8 0.00 0.69 0.69 96 1014.2
20260509081206 18 99 1.6 6.4 0.00 0.69 0.69 96 1011.6
20260509080704 18 119 1.6 6.4 0.00 0.69 0.69 96 1010.9
20260509080202 18 127 12.9 14.5 0.00 0.69 0.69 96 1010.7
20260509075700 18 103 1.6 11.3 0.13 0.69 0.69 96 1010.9
20260509075157 18 349 9.7 24.1 0.13 0.69 0.69 96 1011.4
20260509074654 18 110 8.0 14.5 0.00 0.66 0.66 96 1012.9
20260509074150 19 118 6.4 9.7 0.00 0.66 0.66 96 1013.4
20260509073647 19 101 12.9 17.7 0.00 0.66 0.66 96 1013.9
20260509073144 19 174 9.7 14.5 0.18 0.66 0.66 96 1013.6
20260509072641 19 122 11.3 11.3 0.18 0.66 0.66 96 1013.1
20260509072137 19 110 3.2 9.7 0.00 0.64 0.64 96 1013.2
20260509071634 19 125 1.6 9.7 0.23 0.64 0.64 96 1013.2
20260509071131 19 112 1.6 3.2 0.71 0.64 0.64 96 1013.3
20260509070628 19 110 1.6 3.2 1.02 0.61 0.61 96 1013.2
20260509070124 19 104 1.6 6.4 1.14 0.51 0.51 96 1013.9
20260509065620 19 106 0.0 9.7 1.14 0.43 0.43 96 1014.3
20260509065116 20 105 3.2 6.4 0.71 0.30 0.30 96 1013.9
20260509064614 20 80 3.2 6.4 0.61 0.23 0.23 96 1014.5
20260509064112 20 97 1.6 3.2 0.84 0.18 0.18 96 1013.9
20260509063608 20 114 1.6 3.2 0.53 0.15 0.15 96 1014.1
20260509063105 20 165 4.8 9.7 0.30 0.05 0.05 96 1014.3
20260509062602 20 109 0.0 9.7 0.30 0.05 0.05 96 1013.4
20260509062059 20 99 1.6 3.2 0.00 0.00 0.00 96 1014.1
20260509061556 20 105 0.0 3.2 0.00 0.00 0.00 96 1013.8
20260509061053 20 104 1.6 6.4 0.00 0.00 0.00 96 1014.1
20260509060551 20 113 0.0 3.2 0.00 0.00 0.00 95 1014.0
20260509060046 20 109 1.6 3.2 0.00 0.00 0.00 95 1014.7
20260509055542 20 128 8.0 9.7 0.00 0.00 0.00 94 1015.3
20260509055038 20 96 3.2 3.2 0.00 0.00 0.00 94 1015.5
20260509054535 20 107 0.0 3.2 0.00 0.00 0.00 94 1015.5
20260509054033 20 104 0.0 0.0 0.00 0.00 0.00 94 1015.4
20260509053531 20 112 0.0 6.4 0.00 0.00 0.00 94 1015.2
20260509053028 20 115 1.6 3.2 0.00 0.00 0.00 94 1015.5
20260509052525 20 95 1.6 3.2 0.00 0.00 0.00 94 1015.1
20260509052023 20 104 0.0 9.7 0.00 0.00 0.00 94 1014.1
20260509051521 20 105 0.0 9.7 0.00 0.00 0.00 94 1013.8
20260509051018 20 160 1.6 9.7 0.00 0.00 0.00 94 1013.9
20260509050515 20 125 3.2 6.4 0.00 0.00 0.00 94 1013.9
20260509050011 20 119 3.2 6.4 0.00 0.13 0.13 94 1013.8
20260509045508 20 107 3.2 3.2 0.00 0.13 0.13 94 1013.8
20260509045005 20 113 3.2 6.4 0.00 0.13 0.13 93 1013.8
20260509044504 20 109 3.2 6.4 0.00 0.13 0.13 93 1014.2
20260509044000 20 118 0.0 6.4 0.00 0.13 0.13 93 1014.2
20260509043456 20 119 4.8 14.5 0.00 0.13 0.13 93 1014.4
20260509042951 20 106 0.0 3.2 0.00 0.13 0.13 93 1014.6
20260509042449 20 137 3.2 6.4 0.00 0.13 0.13 92 1014.4
20260509041944 20 135 1.6 17.7 0.00 0.13 0.13 92 1014.7
20260509041442 20 128 3.2 11.3 0.00 0.13 0.13 92 1015.1
20260509040940 20 112 1.6 9.7 0.00 0.13 0.13 92 1015.1
20260509040438 20 133 3.2 11.3 0.00 0.13 0.13 92 1015.0
20260509035934 20 107 0.0 6.4 0.00 0.13 0.13 91 1015.1
20260509035431 20 124 3.2 9.7 0.00 0.13 0.13 91 1015.1
20260509034927 20 104 3.2 3.2 0.00 0.13 0.13 91 1015.1
20260509034425 20 139 6.4 11.3 0.00 0.13 0.13 91 1014.8
20260509033922 20 147 1.6 6.4 0.00 0.13 0.13 90 1014.7
20260509033419 20 124 1.6 3.2 0.00 0.13 0.13 90 1014.7
20260509032915 20 112 3.2 11.3 0.00 0.13 0.13 89 1014.7
20260509032413 20 116 3.2 3.2 0.00 0.13 0.13 89 1014.7
20260509031911 20 124 3.2 6.4 0.00 0.13 0.13 88 1014.9
20260509031408 20 112 1.6 6.4 0.00 0.13 0.13 88 1014.5
20260509030905 20 90 1.6 3.2 0.00 0.13 0.13 87 1014.6
20260509030404 20 114 1.6 3.2 0.00 0.13 0.13 87 1014.3
20260509025900 20 139 3.2 6.4 0.00 0.13 0.13 87 1014.0
20260509025355 20 108 0.0 3.2 0.00 0.13 0.13 86 1013.7
20260509024851 20 114 0.0 6.4 0.00 0.13 0.13 85 1014.0
20260509024347 20 103 0.0 6.4 0.00 0.13 0.13 85 1013.8
20260509023845 20 104 0.0 3.2 0.00 0.13 0.13 85 1013.6
20260509023342 20 120 3.2 6.4 0.00 0.13 0.13 84 1013.2
20260509022838 20 105 3.2 3.2 0.00 0.13 0.13 83 1013.5
20260509022336 21 110 0.0 3.2 0.00 0.13 0.13 83 1013.2
20260509021832 20 112 0.0 3.2 0.00 0.13 0.13 83 1013.4
20260509021329 20 108 0.0 3.2 0.00 0.13 0.13 82 1013.1
20260509020827 20 107 0.0 3.2 0.00 0.13 0.13 82 1013.0